This demonstration page uses our WeatherBlox Daily Observations layout. Learn more.

Left ArrowRight Arrow

Hourly Observations for February 7, 2017

Temp ( °F °C ) Dew Point ( °F °C ) Humidity (%) Winds ( mph kmh ) Pressure ( in mb ) Visibility ( mi km ) Precip ( " mm )
12:02 am 00:02 Cloudy with Light Rain 56 13.3 55 12.8 97 97 VRB 6 9 29.80 1009 10 16 N/A
12:14 am 00:14 Cloudy with Nearby Thunderstorms 56 13.3 55 12.8 97 97 S 5 7 29.80 1009 6 10 0.02 0.51
12:23 am 00:23 Cloudy with Nearby Thunderstorms 56 13.3 55 12.8 97 97 S 6 9 29.80 1009 3 4 0.06 1.52
12:31 am 00:31 Cloudy with Heavy Thunderstorms 55 12.8 55 12.8 100 100 VRB 5 7 29.80 1009 2 3 0.11 2.79
12:35 am 00:35 Cloudy with Heavy Thunderstorms 55 12.8 55 12.8 100 100 VRB 5 7 29.80 1009 1 2 0.14 3.56
12:48 am 00:48 Cloudy with Nearby Thunderstorms 55 13 55 13 100 100 N N/A 29.77 1008 2 3 0.25 6.35
12:53 am 00:53 Cloudy with Nearby Thunderstorms 55 12.8 55 12.8 100 100 N N/A 29.77 1008 3 4 0.29 7.37
12:59 am 00:59 Cloudy with Nearby Thunderstorms 55 12.8 55 12.8 100 100 N N/A 29.77 1008 3 4 0.04 1.02
1:13 am 01:13 Cloudy with Nearby Thunderstorms 56 13.3 55 12.8 97 97 N N/A 29.77 1008 5 8 0.09 2.29
1:20 am 01:20 Cloudy with Light Rain 56 13.3 55 12.8 97 97 N N/A 29.74 1007 9 14 0.09 2.29
1:33 am 01:33 Cloudy with Light Rain 56 13.3 56 13.3 100 100 SE 3 6 29.74 1007 10 16 0.09 2.29
1:53 am 01:53 Cloudy 56 13.3 56 13.3 100 100 undefined N/A 29.73 1007 10 16 0.09 2.29
2:14 am 02:14 Cloudy with Thunderstorms 57 13.9 57 13.9 100 100 S 7 11 29.74 1007 5 8 N/A
2:48 am 02:48 Cloudy with Nearby Thunderstorms 57 14 57 14 100 100 SSW 9 15 29.71 1006 6 10 0.01 0.25
2:53 am 02:53 Cloudy with Light Rain 59 15 58 14.4 96 96 SSW 6 9 29.70 1006 6 10 0.01 0.25
3:07 am 03:07 Cloudy with Heavy Rain 58 14.4 58 14.4 100 100 SSW 8 13 29.71 1006 2 3 0.07 1.78
3:15 am 03:15 Cloudy with Heavy Rain 59 15 58 14.4 96 96 SSW 9 15 29.71 1006 2 2 0.13 3.30
3:19 am 03:19 Cloudy with Rain 59 15 58 14.4 96 96 VRB 7 11 29.71 1006 2 3 0.13 3.30
3:25 am 03:25 Cloudy with Light Rain 59 15 58 14.4 96 96 SSW 8 13 29.71 1006 4 6 0.14 3.56
3:38 am 03:38 Cloudy 60 15.6 58 14.4 93 93 SSW 14 22 29.68 1005 10 16 0.14 3.56
3:46 am 03:46 Cloudy 60 15.6 58 14.4 93 93 SSW 14 22 29.68 1005 10 16 0.14 3.56
3:53 am 03:53 Cloudy 60 15.6 59 15 96 96 SSW 13 20 29.68 1005 10 16 0.14 3.56
4:53 am 04:53 Cloudy 60 15.6 57 13.9 90 90 SW 9 15 29.67 1005 10 16 N/A
5:11 am 05:11 Cloudy 60 15.6 57 13.9 90 90 SSW 7 11 29.68 1005 10 16 N/A
5:53 am 05:53 Cloudy 60 15.6 57 13.9 90 90 SSW 9 15 29.65 1004 10 16 N/A
6:01 am 06:01 Cloudy 60 15.6 57 13.9 90 90 SSW 7 11 29.65 1004 10 16 N/A
6:12 am 06:12 Cloudy 60 15.6 57 13.9 90 90 SSW 9 15 29.65 1004 10 16 N/A
6:37 am 06:37 Cloudy 60 15.6 56 13.3 86 86 SSW 7 11 29.65 1004 10 16 N/A
6:53 am 06:53 Cloudy 61 16.1 56 13.3 84 84 SSW 12 19 29.64 1004 10 16 N/A
7:53 am 07:53 Cloudy 61 16.1 56 13.3 84 84 SSW 8 13 29.64 1004 10 16 N/A
8:06 am 08:06 Cloudy 61 16.1 56 13.3 84 84 SSW 10 17 29.65 1004 10 16 N/A
8:53 am 08:53 Cloudy 61 16.1 55 12.8 81 81 S 9 15 29.62 1003 10 16 N/A
9:53 am 09:53 Cloudy 60 15.6 55 12.8 84 84 SSW 13 20 29.60 1002 10 16 0.01 0.25
10:08 am 10:08 Cloudy 60 15.6 55 12.8 84 84 SSW 16 26 29.59 1002 10 16 N/A
10:37 am 10:37 Cloudy with Light Rain 59 15 56 13.3 90 90 SSW 13 20 29.56 1001 7 11 N/A
10:53 am 10:53 Cloudy with Light Rain 59 15 56 13.3 90 90 S 13 20 29.54 1001 10 16 N/A
11:18 am 11:18 Cloudy 60 15.6 56 13.3 86 86 SSW 12 19 29.56 1001 10 16 N/A
11:53 am 11:53 Cloudy 61 16.1 55 12.8 81 81 SSW 15 24 29.55 1001 10 16 N/A
12:53 pm 12:53 Mostly Cloudy 63 17.2 55 12.8 76 76 SSW 12 19 29.53 1000 10 16 0.01 0.25
1:53 pm 13:53 Cloudy 61 16.1 54 12.2 78 78 SSW 9 15 29.51 999 10 16 N/A
2:19 pm 14:19 Cloudy 61 16.1 54 12.2 78 78 SW 9 15 29.50 999 10 16 N/A
2:29 pm 14:29 Mostly Cloudy 62 16.7 54 12.2 75 75 SW 13 20 29.50 999 10 16 N/A
2:53 pm 14:53 Cloudy 62 16.7 54 12.2 75 75 SW 13 20 29.49 999 10 16 N/A
3:53 pm 15:53 Cloudy 61 16.1 54 12.2 78 78 SSW 8 13 29.48 998 10 16 N/A
4:34 pm 16:34 Cloudy with Light Rain 59 15 55 12.8 87 87 SSW 13 20 29.50 999 3 4 0.03 0.76
4:41 pm 16:41 Cloudy 59 15 55 12.8 87 87 SSW 9 15 29.50 999 10 16 0.03 0.76
4:53 pm 16:53 Cloudy 59 15 55 12.8 87 87 SSW 10 17 29.50 999 10 16 0.03 0.76
5:53 pm 17:53 Cloudy with Light Rain 59 15 55 12.8 87 87 SW 12 19 29.52 1000 10 16 N/A
6:53 pm 18:53 Cloudy 59 15 55 12.8 87 87 SW 12 19 29.54 1000 10 16 N/A
7:53 pm 19:53 Cloudy 59 15 55 12.8 87 87 WSW 9 15 29.55 1001 10 16 N/A
8:49 pm 20:49 Mostly Cloudy 59 15 54 12 82 82 SW 12 19 29.56 1001 10 16 N/A
8:53 pm 20:53 Mostly Cloudy 58 14.4 54 12.2 87 87 SW 9 15 29.57 1001 10 16 N/A
9:53 pm 21:53 Mostly Cloudy 57 13.9 52 11.1 83 83 WNW 18 30 29.61 1003 10 16 N/A
10:14 pm 22:14 Mostly Cloudy 56 13.3 49 9.4 77 77 WNW 12 19 29.62 1003 10 16 N/A
10:53 pm 22:53 Mostly Cloudy 53 11.7 46 7.8 77 77 W 7 11 29.65 1004 10 16 N/A
11:53 pm 23:53 Mostly Clear 51 10.6 46 7.8 83 83 W 7 11 29.65 1004 10 16 N/A

Powered by AerisWeather